THY1VX LTFM-LTAJ

Flight info

Callsign THY1VX
Flight time 1h 20m
Altitude 39000
Route VICEN UT57 VEVUD UT341 BAG UL605 YUCEL UA17 BALAX UL605 RATSI UA17 BOYAT
Aircraft A20N/M-SDE2E3FGHIRWXY/LB1

Departure

Time 2026-04-25 07:53
Airport İstanbul Airport (LTFM)

Arrival

Time 2026-04-25 09:13
Airport Gaziantep Oğuzeli International Airport (LTAJ)
Time Latitude Longitude Altitude Speed Heading
2026-04-25 07:12 41.26622 28.73479 176 ft 0 kts 71°
2026-04-25 07:47 41.26621 28.73475 176 ft 1 kts 71°
2026-04-25 07:47 41.26617 28.73458 176 ft 2 kts 69°
2026-04-25 07:47 41.26611 28.73440 176 ft 2 kts 63°
2026-04-25 07:47 41.26604 28.73422 176 ft 2 kts 62°
2026-04-25 07:48 41.26597 28.73404 176 ft 2 kts 62°
2026-04-25 07:48 41.26590 28.73387 176 ft 2 kts 55°
2026-04-25 07:48 41.26581 28.73372 176 ft 2 kts 41°
2026-04-25 07:48 41.26569 28.73360 176 ft 2 kts 17°
2026-04-25 07:49 41.26558 28.73357 176 ft 0 kts 347°
2026-04-25 07:50 41.26560 28.73357 176 ft 1 kts 347°
2026-04-25 07:50 41.26577 28.73339 176 ft 6 kts 316°
2026-04-25 07:50 41.26589 28.73265 176 ft 11 kts 270°
2026-04-25 07:50 41.26589 28.73137 176 ft 16 kts 269°
2026-04-25 07:51 41.26586 28.72966 176 ft 21 kts 269°
2026-04-25 07:51 41.26585 28.72783 177 ft 20 kts 269°
2026-04-25 07:51 41.26583 28.72602 178 ft 21 kts 268°
2026-04-25 07:51 41.26603 28.72528 178 ft 9 kts 320°
2026-04-25 07:52 41.26680 28.72516 178 ft 14 kts 359°
2026-04-25 07:52 41.26922 28.72511 177 ft 69 kts 360°
2026-04-25 07:52 41.27631 28.72498 176 ft 131 kts 359°
2026-04-25 07:52 41.28710 28.72477 226 ft 173 kts 359°
2026-04-25 07:53 41.29936 28.72457 760 ft 178 kts 359°
2026-04-25 07:53 41.31174 28.72407 1539 ft 177 kts 359°
2026-04-25 07:53 41.32394 28.72354 2310 ft 176 kts 360°
2026-04-25 07:53 41.33352 28.72351 2731 ft 187 kts
2026-04-25 07:54 41.33789 28.72368 2870 ft 193 kts
2026-04-25 07:54 41.35207 28.72433 3295 ft 215 kts 360°
2026-04-25 07:54 41.36711 28.71882 3751 ft 238 kts 329°
2026-04-25 07:54 41.37911 28.70241 4291 ft 261 kts 299°
2026-04-25 07:55 41.38395 28.67869 5065 ft 272 kts 273°
2026-04-25 07:55 41.38372 28.65339 5998 ft 277 kts 266°
2026-04-25 07:55 41.38248 28.62761 6902 ft 281 kts 266°
2026-04-25 07:55 41.38116 28.60149 7815 ft 284 kts 262°
2026-04-25 07:56 41.37452 28.57677 8714 ft 288 kts 236°
2026-04-25 07:56 41.36025 28.55811 9594 ft 292 kts 210°
2026-04-25 07:56 41.34104 28.54930 10349 ft 299 kts 185°
2026-04-25 07:56 41.31952 28.54857 10687 ft 322 kts 177°
2026-04-25 07:57 41.29639 28.55006 11004 ft 343 kts 176°
2026-04-25 07:57 41.27244 28.55205 11776 ft 346 kts 172°
2026-04-25 07:57 41.24919 28.56066 12563 ft 351 kts 154°
2026-04-25 07:57 41.22893 28.57878 13347 ft 355 kts 136°
2026-04-25 07:58 41.21140 28.60227 14041 ft 361 kts 128°
2026-04-25 07:58 41.19896 28.63110 14815 ft 361 kts 112°
2026-04-25 07:58 41.19001 28.66228 15581 ft 363 kts 109°
2026-04-25 07:58 41.18157 28.69397 16335 ft 365 kts 109°
2026-04-25 07:59 41.17274 28.72562 17101 ft 366 kts 110°
2026-04-25 07:59 41.16352 28.75689 17735 ft 371 kts 111°
2026-04-25 07:59 41.15362 28.78915 18416 ft 375 kts 112°
2026-04-25 07:59 41.14370 28.82083 19019 ft 378 kts 112°
2026-04-25 08:00 41.13352 28.85313 19626 ft 381 kts 112°
2026-04-25 08:00 41.12311 28.88604 20211 ft 385 kts 112°
2026-04-25 08:00 41.11623 28.90779 20588 ft 387 kts 112°
2026-04-25 08:00 41.10578 28.94085 21169 ft 390 kts 112°
2026-04-25 08:01 41.09523 28.97418 21749 ft 394 kts 112°
2026-04-25 08:01 41.08459 29.00782 22303 ft 398 kts 112°
2026-04-25 08:01 41.07383 29.04177 22861 ft 401 kts 112°
2026-04-25 08:01 41.05944 29.08713 23604 ft 406 kts 112°
2026-04-25 08:02 41.05201 29.11050 23923 ft 408 kts 112°
2026-04-25 08:02 41.04096 29.14526 24392 ft 411 kts 112°
2026-04-25 08:02 41.02983 29.18025 24850 ft 414 kts 112°
2026-04-25 08:02 41.01861 29.21548 25302 ft 417 kts 112°
2026-04-25 08:03 41.00729 29.25094 25745 ft 420 kts 112°
2026-04-25 08:03 40.99594 29.28647 26217 ft 421 kts 112°
2026-04-25 08:03 40.98463 29.32182 26637 ft 424 kts 112°
2026-04-25 08:03 40.97308 29.35788 27051 ft 427 kts 112°
2026-04-25 08:04 40.96144 29.39416 27447 ft 430 kts 112°
2026-04-25 08:04 40.94971 29.43070 27827 ft 433 kts 112°
2026-04-25 08:04 40.93790 29.46744 28221 ft 435 kts 112°
2026-04-25 08:04 40.92601 29.50437 28596 ft 438 kts 112°
2026-04-25 08:05 40.91404 29.54151 28944 ft 440 kts 112°
2026-04-25 08:05 40.90201 29.57880 29340 ft 442 kts 112°
2026-04-25 08:05 40.88990 29.61625 29674 ft 444 kts 112°
2026-04-25 08:05 40.87771 29.65390 30003 ft 447 kts 112°
2026-04-25 08:06 40.86547 29.69167 30304 ft 449 kts 112°
2026-04-25 08:06 40.85311 29.72976 30617 ft 451 kts 112°
2026-04-25 08:06 40.84071 29.76789 30910 ft 453 kts 112°
2026-04-25 08:06 40.82828 29.80611 31225 ft 455 kts 112°
2026-04-25 08:07 40.81578 29.84445 31625 ft 454 kts 112°
2026-04-25 08:07 40.80331 29.88262 32064 ft 452 kts 112°
2026-04-25 08:07 40.79086 29.92071 32455 ft 452 kts 112°
2026-04-25 08:07 40.77842 29.95874 32813 ft 451 kts 112°
2026-04-25 08:08 40.76598 29.99668 33206 ft 450 kts 112°
2026-04-25 08:08 40.75358 30.03449 33597 ft 449 kts 112°
2026-04-25 08:08 40.74117 30.07225 33934 ft 449 kts 112°
2026-04-25 08:08 40.72876 30.10995 34253 ft 448 kts 112°
2026-04-25 08:09 40.71640 30.14748 34539 ft 447 kts 113°
2026-04-25 08:09 40.70401 30.18506 34797 ft 447 kts 113°
2026-04-25 08:09 40.69160 30.22263 35058 ft 447 kts 113°
2026-04-25 08:09 40.67917 30.26015 35321 ft 447 kts 114°
2026-04-25 08:10 40.66510 30.29661 35558 ft 447 kts 120°
2026-04-25 08:10 40.64820 30.33095 35797 ft 447 kts 126°
2026-04-25 08:10 40.62916 30.36332 36027 ft 447 kts 128°
2026-04-25 08:10 40.61007 30.39559 36253 ft 446 kts 128°
2026-04-25 08:11 40.59106 30.42793 36445 ft 447 kts 128°
2026-04-25 08:11 40.57208 30.46023 36649 ft 447 kts 128°
2026-04-25 08:11 40.55364 30.49312 36856 ft 447 kts 123°
2026-04-25 08:11 40.53847 30.52877 37061 ft 447 kts 115°
2026-04-25 08:12 40.52712 30.56685 37226 ft 448 kts 107°
2026-04-25 08:12 40.51948 30.60664 37408 ft 448 kts 103°
2026-04-25 08:12 40.51258 30.64659 37596 ft 449 kts 103°
2026-04-25 08:12 40.50556 30.68647 37745 ft 449 kts 104°
2026-04-25 08:13 40.49843 30.72642 37940 ft 449 kts 104°
2026-04-25 08:13 40.48986 30.76577 38105 ft 448 kts 108°
2026-04-25 08:13 40.48065 30.80435 38228 ft 449 kts 108°
2026-04-25 08:14 40.46208 30.88253 38563 ft 448 kts 108°
2026-04-25 08:14 40.45280 30.92165 38691 ft 449 kts 108°
2026-04-25 08:14 40.44352 30.96064 38824 ft 448 kts 108°
2026-04-25 08:15 40.42487 31.03883 39013 ft 449 kts 108°
2026-04-25 08:15 40.40615 31.11702 39075 ft 449 kts 108°
2026-04-25 08:16 40.38741 31.19509 39084 ft 449 kts 108°
2026-04-25 08:16 40.37230 31.27456 39074 ft 451 kts 103°
2026-04-25 08:17 40.35938 31.35497 39078 ft 450 kts 103°
2026-04-25 08:17 40.34630 31.43530 39087 ft 451 kts 103°
2026-04-25 08:18 40.33314 31.51572 39093 ft 451 kts 103°
2026-04-25 08:18 40.31989 31.59619 39097 ft 452 kts 103°
2026-04-25 08:19 40.30662 31.67656 39098 ft 452 kts 103°
2026-04-25 08:19 40.29327 31.75702 39105 ft 452 kts 103°
2026-04-25 08:20 40.27985 31.83751 39099 ft 452 kts 103°
2026-04-25 08:20 40.26620 31.91796 39102 ft 452 kts 105°
2026-04-25 08:21 40.24910 31.99718 39109 ft 452 kts 107°
2026-04-25 08:21 40.23207 32.07585 39108 ft 452 kts 107°
2026-04-25 08:22 40.21487 32.15504 39102 ft 452 kts 107°
2026-04-25 08:22 40.19760 32.23416 39101 ft 452 kts 107°
2026-04-25 08:23 40.18029 32.31317 39102 ft 452 kts 107°
2026-04-25 08:23 40.16290 32.39224 39097 ft 453 kts 107°
2026-04-25 08:24 40.14544 32.47133 39096 ft 453 kts 107°
2026-04-25 08:24 40.12792 32.55044 39105 ft 453 kts 107°
2026-04-25 08:25 40.11033 32.62952 39104 ft 453 kts 107°
2026-04-25 08:25 40.09269 32.70860 39099 ft 454 kts 107°
2026-04-25 08:26 40.07156 32.78617 39102 ft 453 kts 117°
2026-04-25 08:26 40.04290 32.85129 39103 ft 451 kts 127°
2026-04-25 08:27 40.04249 32.85207 39109 ft 451 kts 127°
2026-04-25 08:27 40.00320 32.91622 39092 ft 450 kts 131°
2026-04-25 08:28 39.96351 32.97943 39100 ft 451 kts 131°
2026-04-25 08:28 39.92376 33.04266 39106 ft 451 kts 131°
2026-04-25 08:29 39.88390 33.10586 39112 ft 452 kts 131°
2026-04-25 08:29 39.84391 33.16913 39110 ft 453 kts 131°
2026-04-25 08:30 39.80382 33.23241 39115 ft 453 kts 131°
2026-04-25 08:30 39.76365 33.29570 39118 ft 454 kts 131°
2026-04-25 08:31 39.72343 33.35894 39124 ft 455 kts 131°
2026-04-25 08:31 39.68311 33.42220 39119 ft 454 kts 131°
2026-04-25 08:32 39.64283 33.48529 39119 ft 454 kts 132°
2026-04-25 08:32 39.60251 33.54831 39122 ft 454 kts 132°
2026-04-25 08:33 39.56227 33.61140 39118 ft 454 kts 131°
2026-04-25 08:33 39.52305 33.67491 39120 ft 454 kts 130°
2026-04-25 08:34 39.48357 33.73881 39112 ft 454 kts 131°
2026-04-25 08:34 39.44391 33.80240 39114 ft 454 kts 132°
2026-04-25 08:35 39.40336 33.86515 39117 ft 454 kts 132°
2026-04-25 08:35 39.36270 33.92775 39115 ft 455 kts 132°
2026-04-25 08:36 39.32213 33.99038 39109 ft 455 kts 132°
2026-04-25 08:36 39.28165 34.05322 39107 ft 455 kts 132°
2026-04-25 08:37 39.24115 34.11605 39105 ft 455 kts 133°
2026-04-25 08:37 39.20058 34.17882 39114 ft 456 kts 133°
2026-04-25 08:38 39.15989 34.24161 39115 ft 457 kts 133°
2026-04-25 08:38 39.12164 34.30720 39112 ft 460 kts 124°
2026-04-25 08:39 39.08638 34.37548 39104 ft 456 kts 133°
2026-04-25 08:39 39.04457 34.43686 39117 ft 456 kts 134°
2026-04-25 08:40 39.00310 34.49882 39117 ft 458 kts 133°
2026-04-25 08:40 38.96216 34.56157 39124 ft 459 kts 133°
2026-04-25 08:41 38.92124 34.62451 39135 ft 459 kts 133°
2026-04-25 08:41 38.88024 34.68742 39136 ft 459 kts 133°
2026-04-25 08:42 38.83935 34.75002 39088 ft 458 kts 133°
2026-04-25 08:42 38.79815 34.81296 39110 ft 462 kts 133°
2026-04-25 08:43 38.75688 34.87588 39105 ft 461 kts 133°
2026-04-25 08:43 38.71560 34.93870 39105 ft 461 kts 133°
2026-04-25 08:44 38.67427 35.00149 39091 ft 461 kts 133°
2026-04-25 08:44 38.63289 35.06420 39091 ft 461 kts 133°
2026-04-25 08:45 38.59174 35.12645 39091 ft 461 kts 133°
2026-04-25 08:45 38.55032 35.18901 39084 ft 462 kts 133°
2026-04-25 08:46 38.50872 35.25152 39071 ft 462 kts 134°
2026-04-25 08:46 38.46644 35.31327 39073 ft 462 kts 135°
2026-04-25 08:47 38.42401 35.37500 39059 ft 463 kts 135°
2026-04-25 08:47 38.38158 35.43683 39063 ft 463 kts 135°
2026-04-25 08:48 38.33909 35.49867 39067 ft 464 kts 135°
2026-04-25 08:48 38.30373 35.55005 39079 ft 464 kts 135°
2026-04-25 08:49 38.26115 35.61180 39065 ft 463 kts 135°
2026-04-25 08:49 38.21869 35.67326 39062 ft 462 kts 135°
2026-04-25 08:50 38.17616 35.73470 39050 ft 463 kts 135°
2026-04-25 08:50 38.15485 35.76545 38910 ft 463 kts 136°
2026-04-25 08:50 38.13365 35.79607 38505 ft 461 kts 136°
2026-04-25 08:50 38.11247 35.82658 37932 ft 459 kts 136°
2026-04-25 08:51 38.09138 35.85699 37362 ft 458 kts 136°
2026-04-25 08:51 38.07026 35.88734 36809 ft 459 kts 136°
2026-04-25 08:51 38.04906 35.91776 36254 ft 461 kts 137°
2026-04-25 08:51 38.02783 35.94820 35722 ft 461 kts 137°
2026-04-25 08:52 38.00657 35.97866 35205 ft 462 kts 137°
2026-04-25 08:52 37.98523 36.00917 34687 ft 463 kts 137°
2026-04-25 08:52 37.96381 36.03977 34186 ft 465 kts 137°
2026-04-25 08:52 37.94237 36.07040 33617 ft 466 kts 137°
2026-04-25 08:53 37.92080 36.10119 33067 ft 468 kts 136°
2026-04-25 08:53 37.89924 36.13197 32485 ft 466 kts 136°
2026-04-25 08:53 37.87776 36.16261 31912 ft 464 kts 136°
2026-04-25 08:53 37.85636 36.19311 31357 ft 463 kts 136°
2026-04-25 08:54 37.83494 36.22357 30814 ft 464 kts 136°
2026-04-25 08:54 37.81351 36.25407 30259 ft 463 kts 136°
2026-04-25 08:54 37.79213 36.28453 29654 ft 463 kts 136°
2026-04-25 08:54 37.77082 36.31488 29046 ft 460 kts 136°
2026-04-25 08:55 37.74970 36.34495 28452 ft 455 kts 136°
2026-04-25 08:55 37.72879 36.37467 27869 ft 450 kts 136°
2026-04-25 08:55 37.70808 36.40404 27290 ft 445 kts 136°
2026-04-25 08:55 37.68761 36.43305 26721 ft 439 kts 136°
2026-04-25 08:56 37.66731 36.46172 26155 ft 438 kts 135°
2026-04-25 08:56 37.64705 36.49034 25615 ft 436 kts 135°
2026-04-25 08:56 37.62696 36.51875 25067 ft 432 kts 135°
2026-04-25 08:56 37.60710 36.54688 24551 ft 427 kts 135°
2026-04-25 08:57 37.58736 36.57476 24043 ft 425 kts 135°
2026-04-25 08:57 37.56765 36.60252 23522 ft 429 kts 134°
2026-04-25 08:57 37.54710 36.63135 22926 ft 447 kts 134°
2026-04-25 08:57 37.52649 36.66035 22352 ft 441 kts 134°
2026-04-25 08:58 37.50617 36.68896 21765 ft 435 kts 134°
2026-04-25 08:58 37.48625 36.71715 21205 ft 428 kts 134°
2026-04-25 08:58 37.46687 36.74492 20603 ft 414 kts 134°
2026-04-25 08:58 37.44828 36.77170 20044 ft 401 kts 134°
2026-04-25 08:59 37.43015 36.79769 19492 ft 391 kts 134°
2026-04-25 08:59 37.41206 36.82349 18960 ft 395 kts 134°
2026-04-25 08:59 37.39389 36.84936 18458 ft 393 kts 134°
2026-04-25 08:59 37.37590 36.87498 17933 ft 388 kts 134°
2026-04-25 09:00 37.35812 36.90032 17393 ft 384 kts 134°
2026-04-25 09:00 37.34053 36.92538 16865 ft 380 kts 134°
2026-04-25 09:00 37.32310 36.95018 16350 ft 376 kts 135°
2026-04-25 09:00 37.30586 36.97468 15862 ft 373 kts 135°
2026-04-25 09:01 37.28870 36.99906 15407 ft 372 kts 135°
2026-04-25 09:01 37.27162 37.02330 14986 ft 371 kts 135°
2026-04-25 09:01 37.25462 37.04745 14551 ft 367 kts 136°
2026-04-25 09:01 37.23797 37.07159 14070 ft 365 kts 135°
2026-04-25 09:02 37.22157 37.09574 13560 ft 362 kts 134°
2026-04-25 09:02 37.20530 37.11971 13010 ft 359 kts 135°
2026-04-25 09:02 37.18922 37.14336 12501 ft 355 kts 134°
2026-04-25 09:02 37.17342 37.16650 11985 ft 352 kts 134°
2026-04-25 09:03 37.15751 37.18974 11467 ft 350 kts 134°
2026-04-25 09:03 37.14172 37.21278 11014 ft 347 kts 134°
2026-04-25 09:03 37.12604 37.23564 10510 ft 345 kts 133°
2026-04-25 09:03 37.11061 37.25789 10350 ft 331 kts 135°
2026-04-25 09:04 37.09537 37.27874 10222 ft 318 kts 136°
2026-04-25 09:04 37.08060 37.29853 10111 ft 304 kts 136°
2026-04-25 09:04 37.06643 37.31753 9963 ft 293 kts 136°
2026-04-25 09:04 37.05261 37.33613 9563 ft 291 kts 136°
2026-04-25 09:05 37.03896 37.35458 9182 ft 288 kts 136°
2026-04-25 09:05 37.02534 37.37300 8827 ft 285 kts 135°
2026-04-25 09:05 37.01216 37.39088 8680 ft 275 kts 135°
2026-04-25 09:05 36.99947 37.40807 8569 ft 263 kts 135°
2026-04-25 09:06 36.98716 37.42479 8286 ft 260 kts 136°
2026-04-25 09:06 36.97494 37.44130 7998 ft 257 kts 134°
2026-04-25 09:06 36.96311 37.45734 7863 ft 245 kts 135°
2026-04-25 09:06 36.95163 37.47295 7529 ft 243 kts 133°
2026-04-25 09:07 36.94133 37.48981 7099 ft 244 kts 128°
2026-04-25 09:07 36.93133 37.50671 6738 ft 241 kts 128°
2026-04-25 09:07 36.92132 37.52351 6345 ft 241 kts 127°
2026-04-25 09:07 36.91144 37.54009 6055 ft 234 kts 127°
2026-04-25 09:08 36.90169 37.55642 5731 ft 232 kts 127°
2026-04-25 09:08 36.89234 37.57210 5631 ft 219 kts 127°
2026-04-25 09:08 36.88342 37.58704 5494 ft 211 kts 127°
2026-04-25 09:08 36.87465 37.60170 5248 ft 207 kts 126°
2026-04-25 09:09 36.86647 37.61661 4899 ft 209 kts 113°
2026-04-25 09:09 36.86472 37.63427 4601 ft 208 kts 78°
2026-04-25 09:09 36.87151 37.64986 4345 ft 207 kts 43°
2026-04-25 09:09 36.88415 37.65703 4311 ft 197 kts
2026-04-25 09:10 36.89728 37.65372 4087 ft 195 kts 333°
2026-04-25 09:10 36.90733 37.64287 3984 ft 187 kts 309°
2026-04-25 09:10 36.91372 37.62954 3991 ft 176 kts 296°
2026-04-25 09:10 36.91842 37.61550 3975 ft 169 kts 290°
2026-04-25 09:11 36.92523 37.58749 3743 ft 171 kts 285°
2026-04-25 09:11 36.92824 37.57338 3517 ft 165 kts 285°
2026-04-25 09:11 36.93102 37.56013 3298 ft 155 kts 285°
2026-04-25 09:12 36.93385 37.54674 3096 ft 157 kts 284°
2026-04-25 09:12 36.93640 37.53336 2860 ft 156 kts 285°
2026-04-25 09:12 36.93899 37.52008 2671 ft 158 kts 287°
2026-04-25 09:12 36.94196 37.50701 2474 ft 152 kts 287°
2026-04-25 09:13 36.94458 37.49445 2298 ft 152 kts 287°
2026-04-25 09:13 36.94738 37.48186 2270 ft 141 kts 288°
2026-04-25 09:13 36.94958 37.47155 2289 ft 82 kts 283°
2026-04-25 09:13 36.95008 37.46796 2305 ft 13 kts 246°
2026-04-25 09:14 36.94979 37.46665 2303 ft 18 kts 257°
2026-04-25 09:14 36.94909 37.46624 2306 ft 12 kts 140°
2026-04-25 09:14 36.94882 37.46737 2298 ft 16 kts 104°
2026-04-25 09:14 36.94848 37.46884 2305 ft 20 kts 106°
2026-04-25 09:15 36.94811 37.47061 2289 ft 21 kts 105°
2026-04-25 09:15 36.94770 37.47250 2283 ft 24 kts 105°
2026-04-25 09:15 36.94730 37.47424 2278 ft 9 kts 117°
2026-04-25 09:15 36.94708 37.47434 2278 ft 5 kts 172°
2026-04-25 09:16 36.94672 37.47406 2278 ft 7 kts 251°
2026-04-25 09:16 36.94679 37.47340 2280 ft 8 kts 283°
2026-04-25 09:16 36.94683 37.47286 2282 ft 3 kts 248°
2026-04-25 09:16 36.94668 37.47273 2282 ft 4 kts 201°
2026-04-25 09:17 36.94631 37.47273 2282 ft 0 kts 178°